Retour au catalogue

OPS 4682 DEB

ActifPO
NORAD 38384·DEBRIS·🇺🇸 United States

Lancé Apr 3, 1965 depuis Vandenberg Space Force Base

Loading…

Prochains Passages (prochaines 24 heures)

TLE

FraisSource: Space-Track

Époque: Sep 13, 2026, 02:49 UTC

1 38384U 65027CM  26256.11741125  .00000390  00000-0  12976-2 0  9998
2 38384  90.2703  19.2515 0018551 122.4376 237.8542 12.98566729675742

Suivez OPS 4682 DEB en temps réel avec AllMySat

Download on the App Store